TimeEST,TemperatureF,Dew PointF,Humidity,Sea Level PressureIn,VisibilityMPH,Wind Direction,Wind SpeedMPH,Gust SpeedMPH,PrecipitationIn,Events,Conditions,WindDirDegrees,DateUTC
12:54 AM,6.1,-0.9,73,30.42,10.0,NNE,5.8,-,N/A,,Clear,20,2014-03-03 05:54:00
1:54 AM,6.1,-2.9,67,30.42,10.0,NNE,11.5,-,N/A,,Clear,30,2014-03-03 06:54:00
2:54 AM,5.0,-4.0,66,30.42,10.0,NNE,6.9,-,N/A,,Clear,30,2014-03-03 07:54:00
3:54 AM,5.0,-6.0,61,30.42,10.0,NE,6.9,-,N/A,,Clear,40,2014-03-03 08:54:00
5:54 AM,-2.0,-9.9,69,30.45,10.0,North,3.5,-,N/A,,Clear,10,2014-03-03 10:54:00
7:54 AM,-2.0,-9.9,69,30.49,10.0,NNE,3.5,-,N/A,,Clear,30,2014-03-03 12:54:00
8:54 AM,6.1,-6.0,58,30.50,10.0,ENE,3.5,-,N/A,,Clear,60,2014-03-03 13:54:00
9:54 AM,8.1,-4.0,58,30.52,10.0,East,4.6,-,N/A,,Clear,90,2014-03-03 14:54:00
10:54 AM,8.1,-4.0,58,30.53,10.0,ESE,6.9,-,N/A,,Clear,110,2014-03-03 15:54:00
11:54 AM,10.0,-2.9,56,30.53,10.0,Calm,Calm,-,N/A,,Clear,0,2014-03-03 16:54:00
12:54 PM,12.0,-2.9,51,30.52,10.0,Calm,Calm,-,N/A,,Clear,0,2014-03-03 17:54:00
1:54 PM,16.0,-2.9,43,30.51,10.0,Calm,Calm,-,N/A,,Clear,0,2014-03-03 18:54:00
2:54 PM,16.0,-0.9,47,30.50,10.0,Variable,4.6,-,N/A,,Clear,0,2014-03-03 19:54:00
3:54 PM,17.1,-2.0,43,30.51,10.0,NW,5.8,-,N/A,,Clear,310,2014-03-03 20:54:00
4:54 PM,17.1,-2.9,41,30.50,10.0,West,4.6,-,N/A,,Clear,280,2014-03-03 21:54:00
5:54 PM,16.0,-4.0,41,30.49,10.0,WSW,3.5,-,N/A,,Clear,240,2014-03-03 22:54:00
6:54 PM,10.0,-2.0,58,30.51,10.0,NW,6.9,-,N/A,,Clear,310,2014-03-03 23:54:00
7:54 PM,10.0,-0.9,61,30.49,10.0,North,3.5,-,N/A,,Clear,10,2014-03-04 00:54:00
8:54 PM,6.1,-4.0,63,30.47,10.0,Calm,Calm,-,N/A,,Clear,0,2014-03-04 01:54:00
9:54 PM,3.9,-5.1,66,30.46,10.0,Calm,Calm,-,N/A,,Clear,0,2014-03-04 02:54:00
10:54 PM,7.0,-0.9,70,30.44,10.0,Calm,Calm,-,N/A,,Clear,0,2014-03-04 03:54:00
11:54 PM,7.0,-2.0,67,30.44,10.0,Calm,Calm,-,N/A,,Clear,0,2014-03-04 04:54:00